Location: Bogis-Bossey
(46.3500°N, 6.1667°E)
Time: 18:31:12
(UTC+00:00)

Cosmos 1633 Rocket - Pass Details

Date: 17 August 2022
Orbit: 606 x 623 km, 82.5° (Epoch: 01 October)

Event Time Altitude Azimuth Distance (km) Brightness Sun altitude
Exits shadow 21:59:45 54° 25° (NNE) 761 3.6 -26.4°
Drops below altitude 10° 22:03:14 10° 12° (NNE) 2,003 6.3 -26.7°
Sets 22:05:28 0° 11° (N) 2,916 7.3 -26.8°
